Probability
2 2 2 3 3 3 3 3 3 2 1 0 0 0 0 0 0 0 0 0 0 1 2 4 5 5 5 2 0 0 1 1 1 0 0 0 0 0 0 0 0 0 0
1 2 2 3 3 3 3 3 3 2 1 0 0 0 0 0 0 0 0 0 0 1 2 3 4 5 5 3 1 1 2 2 2 1 0 0 0 0 0 0 0 0 0
1 2 3 3 3 3 3 3 2 1 0 0 0 0 0 0 0 0 0 0 0 1 1 2 4 6 6 4 3 3 3 3 3 2 1 0 0 0 0 0 0 0 0
3 3 3 3 3 3 3 3 1 0 0 0 0 0 0 0 0 0 0 1 1 1 1 2 4 7 7 6 5 5 4 3 3 3 2 1 0 0 0 0 0 0 0
3 3 3 3 3 3 3 2 1 0 0 0 0 0 0 0 0 0 0 0 1 1 2 1 2 5 6 7 6 5 5 4 3 3 4 3 2 0 0 0 0 0 0
3 3 3 3 3 3 3 2 1 0 0 0 0 0 0 0 0 0 0 0 0 2 3 2 2 2 3 6 6 5 5 4 3 3 4 5 3 1 0 0 0 0 0
2 3 3 3 3 3 2 1 0 0 0 0 0 0 0 0 0 0 0 0 0 1 2 3 2 2 2 3 4 4 5 4 3 3 4 5 4 2 1 1 0 0 0
1 2 3 3 3 3 1 0 0 0 0 0 0 0 0 0 0 0 0 0 0 0 1 2 2 2 2 2 2 2 3 3 3 3 5 6 5 4 3 2 1 0 0
1 2 3 3 3 3 1 0 0 0 0 0 0 0 0 0 0 0 0 0 0 0 0 1 2 2 1 1 1 1 1 1 2 3 5 6 5 5 4 3 2 1 1
0 1 3 3 3 3 2 1 0 0 0 0 0 0 0 0 0 0 0 0 0 0 0 0 1 1 0 0 0 0 0 0 1 2 3 4 4 4 4 3 3 3 2
0 1 2 3 3 3 3 1 0 0 0 0 0 0 0 0 0 0 0 0 0 0 0 0 0 0 0 0 0 0 0 0 0 1 1 1 3 3 3 3 3 3 3
0 1 2 3 3 3 3 2 0 0 0 0 0 0 0 0 0 0 0 0 0 0 0 0 0 0 0 0 0 0 0 0 0 0 0 1 2 3 3 3 3 3 3
0 1 2 3 3 3 3 1 0 0 0 0 0 0 0 0 0 0 0 0 0 0 0 0 0 0 0 0 0 0 0 0 0 0 0 0 1 2 2 2 2 2 2
0 1 2 3 3 3 2 1 0 0 0 0 0 0 0 0 0 0 0 0 0 0 0 0 0 0 0 0 0 0 0 0 0 0 0 0 0 1 1 0 1 1 1
0 0 1 3 3 3 2 1 0 0 0 0 0 0 0 0 0 0 0 0 0 0 0 0 0 0 0 0 0 0 0 0 0 0 0 0 0 0 0 0 0 0 0
0 0 1 2 3 3 2 1 0 0 0 0 0 0 0 0 0 0 0 0 0 0 0 0 0 0 0 0 0 0 0 0 0 0 0 0 0 0 0 0 0 0 0
0 0 0 1 3 3 2 1 0 0 0 0 0 0 0 0 0 0 0 0 0 0 0 0 0 0 0 0 0 0 0 0 0 0 0 0 0 0 0 0 0 0 0
0 0 0 1 2 3 2 1 0 0 0 0 0 0 0 0 0 0 0 0 0 0 0 0 0 0 0 0 0 0 0 0 0 0 0 0 0 0 0 0 0 0 0
0 0 0 1 2 3 1 0 0 0 0 0 0 0 0 0 0 0 0 0 0 0 0 0 0 0 0 0 0 0 0 0 0 0 0 0 0 0 0 0 0 0 0
0 0 0 1 2 2 1 0 0 0 0 0 0 0 0 0 0 0 0 0 0 0 0 0 0 0 0 0 0 0 0 0 0 0 0 0 0 0 0 0 0 0 0
0 0 0 1 2 2 1 0 0 0 0 0 0 0 0 0 0 0 0 0 0 0 0 0 0 0 0 0 0 0 0 0 0 0 0 0 0 0 0 0 0 0 0
0 0 0 1 1 1 0 0 0 0 0 0 0 0 0 0 0 0 0 0 0 0 0 0 0 0 0 0 0 0 0 0 0 0 0 0 0 0 0 0 0 0 0
0 0 0 0 0 0 0 0 0 0 0 0 0 0 0 0 0 0 0 0 0 0 0 0 0 0 0 0 0 0 0 0 0 0 0 0 0 0 0 0 0 0 0
0 0 0 0 0 0 0 0 0 0 0 0 0 0 0 0 0 0 0 0 0 0 0 0 0 0 0 0 0 0 0 0 0 0 0 0 0 0 0 0 0 0 0
0 0 0 0 0 0 0 0 0 0 0 0 0 0 0 0 0 0 0 0 0 0 0 0 0 0 0 0 0 0 0 0 0 0 0 0 0 0 0 0 0 0 0
0 0 0 0 0 0 0 0 0 0 0 0 0 0 0 0 0 0 0 0 0 0 0 0 0 0 0 0 0 0 0 0 0 0 0 0 0 0 0 0 0 0 0
Wind_Speed
1 1 0 1 0 0 0 0 1 1 1 2 2 1 2 2 1 1 0 2 2 3 5 5 5 5 5 5 5 5 6 6 7 7 7 7 7 7 7 8 8 8 8
1 1 1 1 0 0 0 0 1 1 1 1 2 2 2 1 1 1 1 1 2 3 4 5 5 5 5 5 5 5 6 6 7 7 7 8 8 8 8 8 9 9 9
1 1 1 1 1 0 0 1 1 1 1 1 2 2 2 1 2 2 2 1 1 2 4 5 5 5 6 6 5 6 6 6 7 7 7 8 8 8 9 9 10 10 10
1 1 1 0 1 0 0 0 1 1 1 1 1 2 2 2 2 2 2 2 1 1 2 4 4 5 6 6 6 6 6 6 7 7 8 8 9 9 10 10 10 11 11
0 1 1 0 0 0 0 1 0 0 1 1 2 2 2 2 3 3 2 2 2 2 1 2 3 5 6 6 7 7 7 7 7 8 8 9 9 10 10 11 11 11 12
0 0 1 1 1 0 1 1 1 1 1 1 2 2 3 3 3 2 2 1 1 1 1 1 1 3 5 6 7 8 8 8 8 9 9 10 10 10 10 11 12 12 13
0 0 0 1 1 1 1 1 0 1 1 1 1 2 3 4 3 2 1 1 1 1 1 1 1 1 2 5 7 8 9 9 9 9 9 10 10 11 11 12 12 13 13
1 1 0 1 1 1 1 1 0 0 1 0 0 1 2 3 2 2 1 1 1 1 1 2 1 2 1 1 3 7 9 10 10 10 10 11 11 12 12 13 13 14 14
1 1 1 1 1 1 2 2 1 1 1 1 1 1 1 2 2 2 2 1 1 1 2 2 2 2 2 1 1 4 7 9 10 10 10 10 11 12 12 13 13 14 14
1 2 2 2 2 1 2 2 1 1 1 2 2 1 1 1 1 2 2 2 2 2 2 2 2 2 2 1 2 4 6 8 9 10 11 11 12 12 12 12 13 14 14
2 2 2 2 2 2 2 2 2 2 2 2 2 1 2 2 2 2 3 3 2 2 2 2 2 2 2 2 2 4 6 8 9 10 11 11 12 12 13 13 13 13 14
2 3 3 3 2 2 2 3 3 3 2 2 2 1 2 2 2 2 3 3 3 3 3 3 2 2 2 2 3 5 7 8 9 9 10 11 12 12 13 13 13 14 14
1 2 2 2 2 2 2 2 2 3 3 3 3 3 2 3 2 2 2 3 3 3 3 2 2 2 2 1 2 5 6 7 8 9 10 10 11 11 13 13 13 14 14
1 1 1 2 2 2 2 2 2 3 3 3 4 3 2 3 2 2 2 2 3 3 3 3 2 2 1 1 3 5 4 7 8 9 10 10 11 11 12 12 12 13 14
1 1 2 2 2 3 3 3 3 3 3 3 3 3 3 2 2 2 2 2 2 3 4 3 2 2 2 2 4 3 3 6 9 9 10 10 10 10 11 12 12 13 13
1 2 2 2 2 2 2 2 2 3 3 2 2 3 2 2 2 2 2 2 3 3 4 3 2 3 3 4 6 4 4 8 9 10 11 11 10 10 11 12 12 12 12
1 2 2 3 2 2 2 2 3 3 3 3 3 3 3 2 2 2 2 3 3 3 5 4 3 3 4 4 4 4 4 4 4 9 10 11 11 11 11 11 12 12 12
2 2 3 3 3 3 3 2 3 3 3 3 3 3 3 2 3 2 2 3 3 3 4 5 4 3 4 4 4 4 4 4 4 8 10 11 11 11 11 11 11 11 11
2 3 3 3 3 3 2 2 3 3 3 3 3 3 3 2 3 3 3 3 3 3 3 4 4 3 3 3 4 5 5 4 5 6 8 9 10 11 11 11 11 11 11
3 3 3 3 3 3 3 3 3 3 3 3 3 3 3 3 4 3 4 3 3 3 3 3 3 4 3 3 3 3 4 3 4 5 6 7 9 10 11 11 11 11 11
3 3 3 3 3 3 3 3 3 3 2 2 2 3 3 4 5 4 3 2 3 2 2 3 3 3 3 3 3 3 4 4 4 3 3 4 5 4 5 8 9 9 10
3 3 3 3 3 3 4 5 3 3 3 3 2 2 3 4 4 6 6 6 5 4 3 3 3 4 4 3 3 4 4 4 4 3 3 5 3 4 4 3 6 9 9
3 2 3 3 3 3 4 5 4 2 2 3 3 2 2 3 3 2 3 5 5 6 6 4 4 5 5 4 4 4 4 4 5 4 4 5 4 4 4 4 8 8 8
3 3 3 3 3 3 4 5 4 2 2 2 2 2 2 2 2 2 2 1 2 3 4 3 3 4 4 4 4 5 4 4 4 3 3 4 4 4 4 3 6 7 8
3 2 2 3 3 3 4 4 4 2 2 2 2 2 2 2 4 4 2 1 2 3 4 5 6 6 7 8 6 3 3 3 4 4 2 2 3 3 3 3 4 6 7
3 2 3 3 3 3 4 4 3 2 1 1 1 2 3 3 4 4 2 2 3 3 3 3 4 5 4 5 6 3 3 3 3 3 2 1 2 2 3 2 2 2 3
Wind_Direction
134 123 126 113 100 85 124 295 308 323 326 317 295 280 279 295 302 265 245 258 274 274 275 279 286 286 282 283 288 294 297 300 302 303 306 305 306 307 309 301 305 301 299
132 133 138 123 118 71 3 318 310 319 311 299 293 291 279 275 281 282 242 247 253 265 269 273 283 288 288 286 287 293 293 296 297 300 304 304 302 305 306 304 300 303 295
135 139 138 143 153 81 347 331 323 339 320 305 294 296 296 284 270 265 252 232 227 252 268 272 276 284 288 290 291 293 296 296 295 298 298 303 301 301 301 304 300 298 298
98 123 137 181 168 139 101 291 274 314 312 302 299 300 300 296 278 267 254 235 218 218 253 267 277 283 285 289 291 292 294 293 292 294 296 298 296 295 297 299 303 298 299
85 138 151 168 120 142 255 272 297 300 301 302 291 288 287 281 274 272 254 248 232 208 201 252 271 286 287 287 290 292 292 293 292 292 293 296 295 294 295 296 299 299 298
100 164 157 174 151 165 233 253 285 308 274 288 302 302 287 272 262 250 254 262 255 224 212 223 231 272 282 287 288 289 291 292 294 291 291 294 292 292 294 294 295 296 297
146 202 184 165 147 188 234 248 256 279 305 323 331 310 289 270 252 237 240 252 263 258 243 244 222 235 264 278 288 289 290 291 292 292 291 293 291 290 291 292 295 295 296
162 170 186 196 181 194 228 251 227 210 276 295 326 321 306 305 295 273 246 236 255 280 276 276 263 253 250 236 280 288 290 291 291 292 294 293 291 290 290 291 293 294 296
172 172 201 222 217 199 213 233 225 205 237 270 246 206 221 257 315 284 258 248 247 260 266 265 256 253 260 254 259 282 291 293 293 295 298 298 297 295 295 294 292 293 294
200 190 194 215 220 221 223 234 237 235 208 238 274 266 252 241 248 298 297 280 267 267 265 273 272 261 253 247 268 283 291 294 293 294 295 296 297 297 299 300 300 299 296
212 208 197 204 216 220 221 225 239 237 221 222 231 265 284 286 247 241 277 289 297 280 275 272 264 264 262 249 255 272 291 292 293 294 297 298 300 301 300 301 302 304 304
213 213 203 202 212 220 221 222 228 227 227 226 231 223 231 243 252 249 264 281 286 283 281 269 259 258 262 258 273 291 294 294 298 300 302 303 302 304 303 302 303 303 303
225 229 222 208 210 217 218 217 227 232 227 222 225 228 232 242 245 256 263 277 286 290 280 270 254 259 272 267 281 293 296 301 304 305 306 306 303 302 304 304 302 301 301
232 242 235 223 224 221 226 218 225 236 234 232 239 232 235 245 244 244 242 260 287 289 273 267 280 265 280 292 287 292 287 297 301 302 302 303 303 301 301 302 303 301 300
252 252 247 227 227 222 221 222 219 230 230 230 238 237 236 239 242 248 245 231 236 271 278 267 278 294 307 303 290 284 271 287 296 298 299 300 298 299 300 300 300 300 300
248 239 248 240 237 233 229 228 231 230 230 234 237 237 240 241 239 243 244 245 235 245 266 275 285 294 305 299 295 297 275 288 288 292 295 297 298 298 298 301 302 301 302
236 239 249 245 234 236 231 232 237 231 232 239 246 242 243 241 240 243 243 243 245 243 264 280 279 289 294 291 299 300 289 275 276 285 290 295 299 300 299 300 301 302 302
230 235 241 243 235 237 229 226 243 240 229 233 240 242 245 245 243 251 248 247 247 241 252 274 283 286 287 284 289 292 296 294 281 286 288 292 295 296 298 298 299 300 302
232 236 236 239 234 234 232 234 240 241 231 229 234 238 241 241 250 252 254 251 251 258 254 261 277 283 287 290 297 293 291 296 297 293 291 292 294 295 297 297 297 298 300
229 233 234 237 234 233 230 236 240 241 231 230 236 239 239 237 241 244 252 252 253 257 253 259 272 281 282 284 288 295 300 298 299 305 301 297 297 296 297 298 296 296 297
243 234 233 237 232 232 232 241 236 242 226 233 243 243 243 255 260 252 258 250 252 257 255 257 266 278 279 287 290 292 293 299 294 293 303 298 294 290 292 296 296 297 298
237 227 230 232 234 244 261 265 256 233 232 229 238 246 247 247 258 266 272 271 262 252 251 257 266 267 275 281 287 290 294 302 299 302 309 302 297 293 292 286 297 301 302
236 234 236 230 233 239 260 265 264 243 235 229 225 235 256 259 270 255 270 283 285 280 267 261 265 273 275 274 279 288 287 290 285 291 302 296 299 297 293 302 309 307 310
233 229 232 230 232 239 253 260 264 244 235 235 231 231 234 231 241 260 255 275 282 290 282 278 264 274 282 280 268 268 271 282 285 289 286 284 292 290 297 299 311 314 316
235 233 229 229 227 231 243 251 259 223 226 247 251 246 240 224 249 275 265 268 287 293 295 289 290 293 295 297 295 292 287 287 296 297 287 269 281 294 297 299 314 326 327
232 233 244 236 221 223 239 246 250 212 211 237 253 245 252 259 264 277 244 229 264 277 289 308 307 308 305 304 305 292 277 279 287 291 288 283 291 316 308 299 315 325 322